Regional Weather Roundup
Issued by NWS Nashville, TN

Home | Current Version | Previous Version | Text Only | Print | Product List | Glossary On
Versions: 1 2 3 4 5 6 7 8 9 10 11 12 13 14 15 16 17 18 19 20 21 22 23 24 25 26 27
000
ASUS44 KOHX 232310
RWROHX
MIDDLE TENNESSEE HOURLY WEATHER ROUNDUP
NATIONAL WEATHER SERVICE NASHVILLE TN
500 PM CST MON JAN 23 2017

NOTE: "FAIR" INDICATES FEW OR NO CLOUDS BELOW 12,000 FEET WITH
NO SIGNIFICANT WEATHER AND/OR OBSTRUCTIONS TO VISIBILITY.

* THESE REPORTS ARE NOT UNDER NWS QUALITY CONTROL AND MAY NOT
  REPORT WEATHER SUCH AS PRECIPITATION AND FOG.


TNZ005>011-023>034-057-059-062>066-078-080-240000
...NORTHERN MIDDLE TENNESSEE...

CITY           SKY/WX    TMP DP  RH WIND       PRES   REMARKS
CLARKSVILLE    CLOUDY    44  36  73 NW14      29.77R
CROSSVILLE     CLOUDY    42  41  96 NW14G21   29.62R FOG
GALLATIN       CLOUDY    46  39  76 NW9G20    29.76R
DICKSON        CLOUDY    45  37  73 NW13      29.76R
LEBANON        CLOUDY    45  38  76 NW13      29.71R
NASHVILLE      CLOUDY    47  37  68 NW8G20    29.75R
PORTLAND       CLOUDY    45  39  81 NW7G14    29.73R
SMYRNA         CLOUDY    46  39  76 NW16      29.75R
SPRINGFIELD    CLOUDY    43  37  81 NW15      29.75R
WEST NASHVILLE CLOUDY    45  37  76 NW10      29.76R
$$
TNZ056-058-060-061-075>077-079-093>097-240000
...SOUTHERN MIDDLE TENNESSEE...

CITY           SKY/WX    TMP DP  RH WIND       PRES   REMARKS
COLUMBIA       MOCLDY    52  43  71 NW7       29.73R
MCMINNVILLE    CLOUDY    45  43  93 W8          N/A
MURFREESBORO   CLOUDY    46  38  74 NW10      29.72
SHELBYVILLE    CLOUDY    48  43  81 N7        29.72S
TULLAHOMA      CLOUDY    45  39  81 N14       29.70R
WINCHESTER     CLOUDY    46  41  81 N6        29.69R
$$


...KEY TO REMARKS...
VSB - VISIBILITY IN MILES
WCI - WIND CHILL INDEX
HX  - HEAT INDEX





USA.gov is the U.S. government's official web portal to all federal, state and local government web resources and services.